Regional Weather Roundup
Issued by NWS Grand Forks, ND

Home | Current Version | Previous Version | Graphics & Text | Print | Product List | Glossary On
Versions: 1 2 3 4 5 6 7 8 9 10 11 12 13 14 15 16 17 18 19 20 21 22 23 24 25 26 27 28 29 30 31 32 33 34 35 36 37 38 39 40 41 42 43 44 45 46 47 48 49 50
000
ASUS43 KFGF 290131
RWRFGF
PRAIRIE TO PINES  WEATHER ROUNDUP
NATIONAL WEATHER SERVICE EASTERN NORTH DAKOTA/GRAND FORKS ND
800 PM CDT THU MAY 28 2015

 **SATELLITE DATA USED TO AUGMENT SKY COVER AT AUTOMATED STATIONS**
 *****  WEATHER ACROSS EASTERN NORTH DAKOTA  *****

CITY           SKY/WX    TMP DP  RH WIND       PRES   REMARKS
GRAND FORKS    CLOUDY    66  63  90 E8        29.79R
GRAND FRKS AFB PTSUNNY   73  64  72 N14       29.79R
GRAND FRKS NWS   N/A     64 N/A N/A E5          N/A
DEVILS LAKE    MOSUNNY   70  55  60 N16       29.82R
FARGO          CLOUDY    65  59  81 S8        29.78S
WAHPETON ARPT  CLOUDY    63  59  88 N10       29.80F
$$

 ***** WEATHER ACROSS CENTRAL AND WESTERN NORTH DAKOTA  *****

CITY           SKY/WX    TMP DP  RH WIND       PRES   REMARKS
BISMARCK       CLOUDY    73  56  54 N9        29.86R
MINOT          MOSUNNY   68  53  58 N17       29.88R
JAMESTOWN      CLOUDY    74  61  63 CALM      29.80R
MINOT AFB      SUNNY     70  63  78 N10       29.88R
GARRISON         N/A     70  56  61 N14       29.88R
WILLISTON      PTSUNNY   63  51  65 N25G35    29.98R
DICKINSON      CLOUDY    67  55  65 N8        29.89R
HETTINGER      LGT RAIN  59  56  89 NW3       29.92S
$$

 *****  OTHER AIRPORT OBSERVATIONS IN OUR AREA  *****

CITY           SKY/WX    TMP DP  RH WIND       PRES   REMARKS
WALHALLA         N/A     63  63 100 MISG      29.84R
GRAFTON AIRPOR FAIR      66  66 100 N6        29.81R
VALLEY CITY AR FAIR      70  66  88 NE3       29.79F
CANDO          FAIR      68  55  64 N16G23    29.86R
CAVALIER APRT  NOT AVBL
GWINNER        NOT AVBL
SHEYENNE NWR     N/A     63  61  94 E5        29.95
ROLLA          MOCLDY    63  55  77 N13       29.89R
 ***** THE ABOVE OBSERVATIONS ARE NON NWS ARE NOT QUALITY
       CONTROLLED AND MAY MIS-REPORT RAIN FOR SNOW...
$$

  *****  WEATHER ACROSS NORTHERN MINNESOTA  *****

CITY           SKY/WX    TMP DP  RH WIND       PRES   REMARKS
FLAG ISLAND    RAIN      59  57  94 SE6       29.81F
WARROAD        HVY RAIN  61  57  88 SE9       29.81F
ROSEAU         LGT RAIN  63  57  82 S9        29.81F
HALLOCK        CLOUDY    66  63  88 CALM      29.81R
THF RVR FALLS  CLOUDY    66  64  94 CALM      29.83R
BAUDETTE       RAIN      62  59  90 S8        29.85R FOG
WASKISH        HVY RAIN  61  59  94 CALM      29.86S
CROOKSTON      CLOUDY    70  64  83 N5        29.81S
STEPHEN NDAWN    N/A     64  63  94 SE7         N/A
GREENBUSH NDAW   N/A     64  64 100 NE7         N/A
$$
  *****  WEATHER ACROSS CENTRAL AND WEST MINNESOTA  *****

CITY           SKY/WX    TMP DP  RH WIND       PRES   REMARKS
FOSSTON        CLOUDY    63  61  94 CALM      29.82F
BEMIDJI        RAIN      63  59  86 SW12      29.86R
PARK RAPIDS    CLOUDY    77  51  40 S7        29.81F
ELBOW LAKE     MOCLDY    77  53  43 S10       29.79S
WADENA         MOCLDY    75  52  43 S9        29.81S
DETROIT LAKES  TSTM      63  61  94 N3        29.85R
MOORHEAD       CLOUDY    64  61  88 NW3       29.80S
FERGUS FALLS   TSTM      63  61  94 N12G20    29.82R
MORRIS MN      PTCLDY    77  54  44 S9        29.79S
STAPLES        PTCLDY    73  48  40 S10       29.82F
$$
  *****  WEATHER ELSEWHERE ACROSS MINNESOTA  *****

CITY           SKY/WX    TMP DP  RH WIND       PRES   REMARKS
DULUTH         MOCLDY    46  43  89 E13       29.93F
INTRNTL FALLS  LGT RAIN  60  57  89 N7        29.83R
ELY            NOT AVBL
CLOQUET        MOCLDY    46  43  87 E8        29.93S
WHEATON        MOCLDY    77  55  47 S13G18    29.79R
BRAINERD       PTCLDY    75  52  44 S10       29.85F
HIBBING        CLOUDY    68  50  52 S8        29.88S
ALEXANDRIA     PTCLDY    78  49  35 S15G23    29.83F
SAINT CLOUD    CLEAR     78  50  37 S10G20    29.86R
MINNEAPOLIS    MOCLDY    81  51  35 S20G30    29.90S
$$

  *****  WEATHER ACROSS SOUTH DAKOTA  *****

CITY           SKY/WX    TMP DP  RH WIND       PRES   REMARKS
SIOUX FALLS    MOCLDY    72  56  57 S17       29.88R
BROOKINGS      PTCLDY    73  55  53 S16G23    29.86S
WATERTOWN      MOCLDY    75  59  57 S15G25    29.81S
HURON            N/A    N/A N/A N/A MISG      29.80R
SISSETON         N/A     80  59  48 S16       29.76R
ABERDEEN       CLOUDY    71  59  65 W14       29.78R
MITCHELL       MOCLDY    77  62  59 S17G24    29.82R
PIERRE         CLOUDY    64  58  80 NW16      29.82R
MOBRIDGE       LGT RAIN  67  60  78 CALM      29.84R
RAPID CITY     CLOUDY    59  54  83 NW16G22   29.96R
$$

  *****  SOME WEATHER IN NEARBY STATES *****

CITY           SKY/WX    TMP DP  RH WIND       PRES   REMARKS
GLASGOW MT     PTSUNNY   57  49  74 N13G25    30.10R
GREAT FALLS MT CLOUDY    49  48  97 N14       30.24R
CHEYENNE WY    PTSUNNY   62  36  37 NW20G31   30.04R
SCOTTSBLUFF NE CLOUDY    66  52  60 N20G30    29.95R
OMAHA NE       MOCLDY    71  63  75 SE14      29.91F
DES MOINES IA  CLOUDY    73  64  73 SE16G24   29.97F
DAVENPORT IA   CLOUDY    77  52  41 S7        30.04F
CHICAGO IL     MOCLDY    75  53  46 E10       30.09F
EAU CLAIRE WI  CLEAR     77  54  44 S14       29.96F
LA CROSSE WI   PTCLDY    78  56  46 SE10      29.98F
$$

  *****  SOME NATIONAL WEATHER *****

CITY           SKY/WX    TMP DP  RH WIND       PRES   REMARKS
LA GUARDIA NY  MOCLDY    77  64  64 VRB5      30.16R
RALEIGH NC     MOCLDY    79  68  69 CALM      30.20R THUNDER
ATLANTA GA     LGT RAIN  70  66  87 CALM      30.19S
NEW ORLEANS LA PTCLDY    82  72  71 S7        30.04R
OKLAHOMA CITY  CLOUDY    72  68  87 S6        29.90F
ALBUQUERQUE NM MOSUNNY   84  14   7 W17       29.97S
SALT LAKE CITY MOSUNNY   70  40  33 N10       30.09S
LOS ANGELES CA MOSUNNY   64  56  75 W16       29.93F
BOISE ID       SUNNY     78  42  27 NW8       30.02S
SEATTLE WA     MOSUNNY   81  51  35 N8        30.00F
$$

*** WEATHER ACROSS MANITOBA...SASKATCHEWAN AND ONTARIO ***
                ***ONTARIO***

CITY           SKY/WX    TMP DP  RH WIND       PRES   REMARKS
GERALDTON      LGT RAIN  52  50  93 SE7       30.00F
THUNDER BAY    CLOUDY    48  46  93 SE6       29.99F FOG
SIOUX LOOKOUT  MOCLDY    55  54  94 SE3       29.86F
TORONTO        PTCLDY    68  52  56 SE6       30.24S
BIG TROUT LK   LGT RAIN  48  34  57 SE15G22   30.05F
PICKLE LAKE    LGT RAIN  45  43  93 E10       29.94F FOG
DRYDEN         LGT RAIN  57  55  94 S6        29.86S
KENORA         LGT RAIN  59  57  94 S5        29.86R
$$
                *** MANITOBA***

CITY           SKY/WX    TMP DP  RH WIND       PRES   REMARKS
BRANDON        PTSUNNY   61  48  63 N30G37    29.89R
DAUPHIN        CLOUDY    46  45  93 N18G28    30.04R
ISLAND LAKE    LGT RAIN  41  41 100 NE9G18    29.91F
PILOT MOUND      N/A     64  55  72 N12         N/A
THE PAS        CLOUDY    43  37  81 N20G28    30.17R
THOMPSON       LGT SNOW  32  30  93 N9G20     30.20R WCI  24
WINNIPEG       CLOUDY    59  57  94 N13       29.86R
LYNN LAKE      MIX PCPN  32  27  80 N13G20    30.32R WCI  22
CHURCHILL      CLOUDY    28  21  74 E13       30.40R WCI  18
GILLAM         LGT SNOW  30  28  93 NE14G24   30.22R VSB 3/4 WCI  20
$$
                ***SASKATCHEWAN***

CITY           SKY/WX    TMP DP  RH WIND       PRES   REMARKS
ESTEVAN        CLOUDY    55  48  76 N25G36    30.01R
KINDERSLEY     SUNNY     54  28  37 N15G24    30.24R
LLOYDMINSTER   SUNNY     52  27  37 N12       30.29S
PRINCE ALBERT  PTSUNNY   50  30  46 N15G24    30.25R
REGINA         MOSUNNY   52  37  58 N17G29    30.14R
YORKTON        CLOUDY    46  39  76 N21G30    30.11R
N. BATTLEFORD  SUNNY     54  30  40 NE12G17   30.28R
LA RONGE       PTSUNNY   45  28  53 N6        30.32R
SASKATOON      MOSUNNY   54  27  35 NE17      30.24R
SWIFT CURRENT  SUNNY     54  28  37 N18G28    30.18R
$$
NOTE: THESE ARE AUTOMATED STATIONS WITH LIMITED QUALITY CONTROL
      "FAIR" INDICATES FEW OR NO CLOUDS BELOW 12,000 FEET WITH NO
      SIGNIFICANT WEATHER AND/OR OBSTRUCTIONS TO VISIBILITY.
      SKY/WX - SKY CONDITION AND SIGNIFICANT WEATHER.
      TMP - AIR TEMPERATURE.    DP   - DEWPOINT TEMPERATURE.
      RH  - RELATIVE HUMIDITY.  PRES - PRESSURE.
      HX  - HEAT INDEX.         WCI  - WIND CHILL INDEX.
$


USA.gov is the U.S. government's official web portal to all federal, state and local government web resources and services.